Date String (YYYY-MM-DD hh:mm:ss) UTC,Instrument flags,absolute air pressure of the measurement (hPa),sample flow rate (lpm),inlet stack bypass flow (lpm),air temperature of the measurement (°C),ambient temperature measured by the external sensor (°C),aerosol sample conditioner tube jacket temperature (°C),OPC LED temperature (°C),internal box temperature (°C),relative humidity of the measurement (%),span deviation,mass concentration of particles derived from Lorenz-Mie calculation of OPC scattering (μg/m³),mass concentration of particles derived from Lorenz-Mie calculation of OPC scattering (μg/m³),mass concentration of particles derived from Lorenz-Mie calculation of OPC scattering (μg/m³)
DateTimeUTC,F1_M11,P_M11,Q1_M11,Q2_M11,T1_M11,T2_M11,T3_M11,T4_M11,T5_M11,U1_M11,ZSPAN_M11,X0_M11,X2_M11,X1_M11
2024-05-07 20:00:00,SystemResetWarning,0816.9,4.99,000.00,023.3,022.6,000.0,031.4,025.0,016.7,0000.0,0005.28,0001.77,0000.95
2024-05-07 20:01:00,SystemResetWarning,0816.8,5.02,000.00,023.3,022.6,000.0,031.4,025.0,016.9,0000.0,0005.27,0001.77,0000.97
2024-05-07 20:02:00,SystemResetWarning,0816.9,5.00,000.00,023.3,022.6,000.0,031.4,024.9,016.9,0000.0,0005.11,0001.80,0000.99
2024-05-07 20:03:00,SystemResetWarning,0816.8,4.99,000.00,023.3,022.6,000.0,031.4,025.0,017.0,0000.0,0005.21,0001.83,0001.00
2024-05-07 20:04:00,SystemResetWarning,0816.9,5.00,000.00,023.3,022.5,000.0,031.4,024.9,017.3,0000.0,0004.76,0001.80,0001.01
2024-05-07 20:05:00,SystemResetWarning,0816.9,5.00,000.00,023.2,022.5,000.0,031.4,025.0,017.3,0000.0,0004.27,0001.81,0001.01
2024-05-07 20:06:00,SystemResetWarning,0816.9,5.00,000.00,023.2,022.5,000.0,031.5,024.9,017.3,0000.0,0004.56,0001.85,0001.02
2024-05-07 20:07:00,SystemResetWarning,0817.0,5.01,000.00,023.2,022.5,000.0,031.5,024.9,017.6,0000.0,0004.70,0001.79,0001.01
2024-05-07 20:08:00,SystemResetWarning,0816.9,5.01,000.00,023.2,022.5,000.0,031.5,024.9,018.0,0000.0,0004.72,0001.75,0001.01
2024-05-07 20:09:00,SystemResetWarning,0816.9,4.99,000.00,023.2,022.4,000.0,031.5,024.9,017.8,0000.0,0004.52,0001.68,0000.99
2024-05-07 20:10:00,SystemResetWarning,0816.9,4.99,000.00,023.2,022.4,000.0,031.5,024.9,016.8,0000.0,0004.49,0001.60,0000.98
2024-05-07 20:11:00,SystemResetWarning,0817.0,5.00,000.00,023.2,022.4,000.0,031.5,024.9,017.2,0000.0,0004.09,0001.57,0000.97
2024-05-07 20:12:00,SystemResetWarning,0817.0,5.01,000.00,023.2,022.4,000.0,031.5,024.9,017.0,0000.0,0003.85,0001.53,0000.96
2024-05-07 20:13:00,SystemResetWarning,0816.9,5.01,000.00,023.2,022.4,000.0,031.5,024.8,017.1,0000.0,0003.73,0001.49,0000.94
2024-05-07 20:14:00,SystemResetWarning,0817.0,5.00,000.00,023.2,022.4,000.0,031.5,024.8,016.6,0000.0,0003.98,0001.49,0000.93
2024-05-07 20:15:00,SystemResetWarning,0817.0,5.00,000.00,023.2,022.4,000.0,031.5,024.9,016.4,0000.0,0004.57,0001.53,0000.93
2024-05-07 20:16:00,SystemResetWarning,0817.1,5.00,000.00,023.1,022.4,000.0,031.5,024.8,016.4,0000.0,0004.92,0001.50,0000.92
2024-05-07 20:17:00,SystemResetWarning,0817.1,5.00,000.00,023.1,022.3,000.0,031.5,024.8,016.8,0000.0,0004.70,0001.49,0000.92
2024-05-07 20:18:00,SystemResetWarning,0817.1,5.00,000.00,023.1,022.3,000.0,031.5,024.8,017.1,0000.0,0004.48,0001.48,0000.92
2024-05-07 20:19:00,SystemResetWarning,0817.1,5.00,000.00,023.1,022.3,000.0,031.5,024.8,016.8,0000.0,0004.73,0001.45,0000.91
2024-05-07 20:20:00,SystemResetWarning,0817.1,5.00,000.00,023.1,022.3,000.0,031.5,024.8,017.0,0000.0,0004.93,0001.44,0000.91
2024-05-07 20:21:00,SystemResetWarning,0816.9,5.00,000.00,023.1,022.3,000.0,031.5,024.8,016.8,0000.0,0005.00,0001.44,0000.91
2024-05-07 20:22:00,SystemResetWarning,0816.9,5.00,000.00,023.1,022.3,000.0,031.5,024.8,017.2,0000.0,0004.98,0001.45,0000.91
2024-05-07 20:23:00,SystemResetWarning,0816.8,5.00,000.00,023.1,022.3,000.0,031.5,024.8,017.2,0000.0,0005.10,0001.45,0000.92
2024-05-07 20:24:00,SystemResetWarning,0816.8,5.00,000.00,023.1,022.3,000.0,031.5,024.8,017.3,0000.0,0006.27,0001.48,0000.93
2024-05-07 20:25:00,SystemResetWarning,0816.8,5.00,000.00,023.0,022.3,000.0,031.5,024.8,016.6,0000.0,0006.30,0001.51,0000.94
2024-05-07 20:26:00,SystemResetWarning,0816.8,4.99,000.00,023.0,022.3,000.0,031.5,024.8,016.3,0000.0,0005.93,0001.54,0000.95
2024-05-07 20:27:00,SystemResetWarning,0816.9,5.00,000.00,023.0,022.3,000.0,031.5,024.8,017.2,0000.0,0005.55,0001.58,0000.97
2024-05-07 20:28:00,SystemResetWarning,0816.8,4.99,000.00,023.0,022.3,000.0,031.5,024.8,016.1,0000.0,0005.60,0001.60,0000.97
2024-05-07 20:29:00,SystemResetWarning,0816.8,4.99,000.00,023.0,022.3,000.0,031.5,024.7,016.4,0000.0,0005.73,0001.66,0000.99
2024-05-07 20:30:00,SystemResetWarning,0816.8,5.00,000.00,023.0,022.3,000.0,031.4,024.8,016.1,0000.0,0005.31,0001.71,0001.00
2024-05-07 20:31:00,SystemResetWarning,0816.6,5.01,000.00,023.0,022.3,000.0,031.4,024.8,016.2,0000.0,0005.26,0001.77,0001.02
2024-05-07 20:32:00,SystemResetWarning,0816.5,5.01,000.00,023.0,022.3,000.0,031.4,024.8,015.7,0000.0,0005.43,0001.82,0001.03
2024-05-07 20:33:00,SystemResetWarning,0816.5,5.00,000.00,023.0,022.3,000.0,031.4,024.8,014.0,0000.0,0005.42,0001.80,0001.02
2024-05-07 20:34:00,SystemResetWarning,0816.5,4.99,000.00,023.1,022.3,000.0,031.4,024.8,014.3,0000.0,0005.21,0001.81,0001.01
2024-05-07 20:35:00,SystemResetWarning,0816.4,5.00,000.00,023.1,022.3,000.0,031.4,024.8,014.8,0000.0,0004.43,0001.83,0001.01
2024-05-07 20:36:00,SystemResetWarning,0816.3,5.01,000.00,023.1,022.3,000.0,031.4,024.8,014.5,0000.0,0003.92,0001.80,0001.01
2024-05-07 20:37:00,SystemResetWarning,0816.5,5.01,000.00,023.1,022.3,000.0,031.4,024.8,014.8,0000.0,0004.25,0001.86,0001.00
2024-05-07 20:38:00,SystemResetWarning,0816.5,4.99,000.00,023.1,022.4,000.0,031.4,024.8,015.2,0000.0,0004.16,0001.81,0000.99
2024-05-07 20:39:00,SystemResetWarning,0816.6,4.98,000.00,023.1,022.4,000.0,031.4,024.8,015.2,0000.0,0004.07,0001.77,0000.99
2024-05-07 20:40:00,SystemResetWarning,0816.7,5.01,000.00,023.1,022.4,000.0,031.4,024.8,014.8,0000.0,0003.90,0001.74,0000.98
2024-05-07 20:41:00,SystemResetWarning,0816.7,5.01,000.00,023.1,022.4,000.0,031.4,024.9,015.5,0000.0,0005.09,0001.69,0000.96
2024-05-07 20:42:00,SystemResetWarning,0816.6,5.00,000.00,023.1,022.4,000.0,031.4,024.9,016.0,0000.0,0005.09,0001.66,0000.96
2024-05-07 20:43:00,SystemResetWarning,0816.6,5.00,000.00,023.1,022.4,000.0,031.4,024.9,015.9,0000.0,0004.66,0001.61,0000.95
2024-05-07 20:44:00,SystemResetWarning,0816.6,5.00,000.00,023.1,022.4,000.0,031.4,024.9,015.7,0000.0,0004.97,0001.67,0000.96
2024-05-07 20:45:00,SystemResetWarning,0816.8,5.00,000.00,023.1,022.4,000.0,031.4,024.9,015.9,0000.0,0005.28,0001.66,0000.97
2024-05-07 20:46:00,SystemResetWarning,0816.8,5.00,000.00,023.1,022.4,000.0,031.4,024.9,015.9,0000.0,0005.37,0001.67,0000.96
2024-05-07 20:47:00,SystemResetWarning,0816.8,5.00,000.00,023.1,022.4,000.0,031.4,024.9,016.3,0000.0,0005.42,0001.67,0000.95
2024-05-07 20:48:00,SystemResetWarning,0816.8,4.99,000.00,023.1,022.4,000.0,031.4,024.9,015.7,0000.0,0005.14,0001.61,0000.96
2024-05-07 20:49:00,SystemResetWarning,0816.9,5.00,000.00,023.1,022.4,000.0,031.4,024.9,015.5,0000.0,0005.07,0001.56,0000.94
2024-05-07 20:50:00,SystemResetWarning,0816.9,5.00,000.00,023.2,022.5,000.0,031.4,024.9,016.2,0000.0,0005.38,0001.60,0000.94
2024-05-07 20:51:00,SystemResetWarning,0817.0,5.01,000.00,023.2,022.5,000.0,031.4,024.9,016.3,0000.0,0006.67,0001.61,0000.93
2024-05-07 20:52:00,SystemResetWarning,0817.0,5.01,000.00,023.2,022.5,000.0,031.4,024.9,016.2,0000.0,0005.67,0001.64,0000.95
2024-05-07 20:53:00,SystemResetWarning,0817.0,4.97,000.00,023.2,022.5,000.0,031.4,024.9,016.5,0000.0,0005.48,0001.62,0000.94
2024-05-07 20:54:00,SystemResetWarning,0817.0,5.01,000.00,023.2,022.5,000.0,031.4,024.9,016.6,0000.0,0006.83,0001.66,0000.95
2024-05-07 20:55:00,SystemResetWarning,0816.9,5.01,000.00,023.2,022.5,000.0,031.4,024.9,016.8,0000.0,0006.74,0001.67,0000.95
2024-05-07 20:56:00,SystemResetWarning,0816.9,5.00,000.00,023.2,022.5,000.0,031.4,024.8,016.1,0000.0,0006.42,0001.66,0000.95
2024-05-07 20:57:00,SystemResetWarning,0816.9,4.99,000.00,023.2,022.4,000.0,031.4,024.9,016.0,0000.0,0006.24,0001.62,0000.95
2024-05-07 20:58:00,SystemResetWarning,0816.9,4.98,000.00,023.1,022.4,000.0,031.4,024.8,016.2,0000.0,0006.09,0001.62,0000.95
2024-05-07 20:59:00,SystemResetWarning,0816.9,5.03,000.00,023.1,022.4,000.0,031.4,024.8,016.1,0000.0,0006.08,0001.63,0000.93
